Location: Newark
(47.5833°N, 8.1500°E)
Time: 15:09:14
(UTC+00:00)

Tiros 1 - Pass Details

Date: 04 November 2020
Orbit: 630 x 664 km, 48.4° (Epoch: 29 November)

Event Time Altitude Azimuth Distance (km) Brightness Sun altitude
Exits shadow 03:51:22 84° 41° (NE) 639 7.0 -24.7°
Drops below altitude 10° 03:55:55 10° 97° (E) 2,006 10.7 -24.0°
Sets 03:58:14 0° 98° (E) 2,914 11.9 -23.6°
